Tracking 25710 objects as of 4-Jul-2022
HD Live streaming from Space Station
objects crossing your sky now

STARLINK-2572

Track STARLINK-2572 now!
10-day predictions
STARLINK-2572 is classified as:


NORAD ID: 48372
Int'l Code: 2021-038V
Perigee: 553.3 km
Apogee: 555.5 km
Inclination: 53.1 °
Period: 95.6 minutes
Semi major axis: 6925 km
RCS: Unknown
Launch date: May 4, 2021
Source: United States (US)
Launch site: AIR FORCE EASTERN TEST RANGE (AFETR)
aabbcc
Your satellite tracking list
Your tracking list is empty




NASA's NSSDC Master Catalog

Two Line Element Set (TLE):
1 48372U 21038V   22185.50325652 -.00003428  00000-0 -21142-3 0  9996
2 48372  53.0552 265.9190 0001601  53.6951 306.4185 15.06384153 64569
Source of the keplerian elements: AFSPC